[[{"header":{"parameterUnit":"m.s-1","parameterCategory":2,"la1":30.2991,"la2":30.254,"lo1":-89.0895,"lo2":-89.0444,"dy":0.0017,"dx":0.0017,"nx":28,"ny":28,"refTime":"2024-06-03T09:00:00:Z","depth":"0","parameterNumber":2,"parameterNumberName":"U-component_of_CURRENTS"},"data":[0,0,0,0,0,0,0,0,0,0,0,0,0,0,0,0,0,0,0,0,0,0,0,0,0,0,0,0,0,0,0,0,0,0,0,0,0,0,0,0,0,0,0,0,0,0,0,0,0,0,0,0,0,0,0,0,0,0,0.3425,0.3426,0,0.3479,0.3479,0.348,0.3472,0.3472,0.3471,0.347,0.3512,0.3513,0.3515,0,0,0,0,0,0,0,0,0,0,0,0,0,0.333,0.3331,0.3425,0.3426,0.3427,0.3479,0.3479,0.348,0.3472,0.3472,0.3471,0.347,0.3511,0.3513,0.3515,0,0,0,0,0,0,0,0,0,0,0,0,0,0.3372,0.3331,0.3424,0.3432,0.3433,0.3479,0.3479,0.348,0.3472,0.3472,0.3471,0.347,0.3511,0.3513,0.3516,0.3547,0,0,0.3523,0.3524,0,0,0,0,0,0,0,0,0.337,0.3375,0.343,0.3432,0.3433,0.3471,0.3461,0.3503,0.3473,0.3454,0.347,0.347,0.35,0.3503,0.351,0.3549,0.3551,0.3523,0.3525,0.3526,0.3526,0,0,0,0,0,0,0,0.3367,0.3373,0.3442,0.3431,0.3433,0.3438,0.3443,0.3469,0.3478,0.3455,0.3456,0.3468,0.35,0.3508,0.3511,0.3552,0.3523,0.3525,0.3527,0.3528,0.3667,0.3669,0,0,0,0,0,0,0.3368,0.3371,0.3441,0.3444,0.3403,0.3441,0.3446,0.3457,0.3478,0.3481,0.3469,0.3468,0.3504,0.3508,0.3513,0.3601,0.3526,0.3528,0.3529,0.3665,0.3668,0.367,0,0,0,0,0,0,0.3366,0.3374,0.3439,0.3412,0.3421,0.3444,0.3456,0.3458,0.3474,0.3489,0.3491,0.3482,0.3504,0.3509,0.355,0.3601,0.3529,0.3531,0.3662,0.3666,0.3669,0.3747,0,0,0,0,0,0,0.3363,0.3373,0.3382,0.3412,0.3422,0.3477,0.3457,0.346,0.3484,0.3483,0.3502,0.3504,0.3504,0.3546,0.3552,0.3603,0.3533,0.3659,0.3664,0.3668,0.3741,0.3752,0.3762,0,0,0,0,0,0.3359,0.3375,0.3382,0.3391,0.3434,0.3479,0.3485,0.3495,0.3485,0.3502,0.3515,0.3504,0.3577,0.355,0.3556,0.3609,0.3657,0.3663,0.3667,0.3737,0.375,0.3761,0,0,0,0,0,0,0.3336,0.3377,0.3385,0.3411,0.3449,0.3479,0.3497,0.3504,0.3527,0.3526,0.3528,0.3533,0.3595,0.3589,0.3558,0.3662,0.3618,0.3625,0.3669,0.3681,0.3691,0.3694,0.3535,0,0,0,0,0,0.3338,0.336,0.3402,0.3425,0.3446,0.3474,0.3493,0.3505,0.3531,0.3539,0.3554,0.3578,0.3622,0.3637,0.367,0.3719,0.3724,0.3758,0.3769,0.3777,0.3786,0.383,0.3844,0.3687,0.3687,0.3686,0,0,0.3336,0.3362,0.3374,0.3423,0.345,0.3496,0.3482,0.3521,0.3562,0.3542,0.3596,0.3618,0.3645,0.3708,0.3735,0.3706,0.383,0.3784,0.3791,0.3795,0.3836,0.3852,0.3865,0.369,0.3689,0.3689,0,0,0.335,0.3369,0.3397,0.3433,0.3485,0.3513,0.3529,0.3572,0.3592,0.3646,0.3656,0.3703,0.375,0.3788,0.3812,0.3897,0.3889,0.3911,0.3959,0.4003,0.4016,0.4027,0.4071,0.4086,0.3908,0.3908,0.3908,0,0.3349,0.3387,0.3413,0.3456,0.349,0.3526,0.3571,0.361,0.366,0.3684,0.3671,0.3772,0.3794,0.3885,0.3919,0.3923,0.394,0.3909,0.4015,0.4027,0.4037,0.4079,0.4095,0.3912,0.3912,0.3912,0.3911,0,0.3392,0.3423,0.3446,0.3514,0.3555,0.3601,0.3661,0.3704,0.373,0.3762,0.3847,0.3883,0.3934,0.3965,0.397,0.4069,0.4058,0.4028,0.398,0.4057,0.4098,0.4112,0.3919,0.3917,0.3916,0.3915,0,0,0.3397,0.3462,0.3473,0.3495,0.3588,0.3618,0.3706,0.3782,0.3835,0.3885,0.3954,0.4038,0.4045,0.4074,0.4097,0.4142,0.4243,0.412,0.4121,0.4159,0.4346,0.4349,0.4364,0.4228,0.423,0.4232,0.435,0,0.3429,0.3493,0.3529,0.3595,0.3635,0.3692,0.3767,0.3838,0.3903,0.3981,0.4033,0.4109,0.4093,0.4131,0.4176,0.4239,0.4282,0.4214,0.427,0.4272,0.4261,0.4382,0.4283,0.438,0.4363,0.4366,0.4367,0,0.3474,0.3504,0.3563,0.3622,0.3646,0.3692,0.3803,0.3875,0.3998,0.4049,0.4128,0.4172,0.4278,0.4237,0.4361,0.4318,0.4338,0.4368,0.4372,0.4356,0.4303,0.4298,0.4407,0.432,0.4389,0.4387,0.4386,0,0.3462,0.353,0.3565,0.3591,0.3674,0.3704,0.3761,0.3885,0.3972,0.4099,0.4182,0.4272,0.436,0.4393,0.4464,0.4416,0.4592,0.4522,0.4541,0.454,0.4459,0.4447,0.4483,0.4591,0.4591,0.4591,0.459,0,0.3488,0.3514,0.3549,0.3566,0.3623,0.368,0.378,0.3855,0.4002,0.4113,0.4206,0.4329,0.4406,0.4513,0.4516,0.4605,0.463,0.4587,0.4586,0.4486,0.4476,0.4395,0.435,0.4595,0.4594,0.4593,0.4593,0,0.3483,0.3508,0.354,0.3592,0.3617,0.3654,0.3796,0.3866,0.4012,0.417,0.4219,0.4418,0.4556,0.4627,0.4727,0.4705,0.4646,0.4764,0.4653,0.4636,0.4539,0.4501,0.4334,0.4201,0.4798,0.4799,0.48,0,0.3483,0.35,0.3547,0.3563,0.3584,0.366,0.372,0.3861,0.3952,0.4221,0.4286,0.45,0.4631,0.4813,0.4827,0.4863,0.469,0.4775,0.4659,0.4562,0.4519,0.428,0.416,0.4586,0.4585,0.4584,0.4583,0,0.3478,0.3493,0.3513,0.3552,0.3584,0.365,0.3738,0.3827,0.3998,0.4138,0.4325,0.4459,0.469,0.4734,0.4833,0.4824,0.4573,0.4759,0.4684,0.4398,0.4114,0.3975,0.4482,0.4576,0.4577,0.4578,0.4578,0.4578,0.3459,0.3476,0.3494,0.3522,0.3559,0.3597,0.3618,0.3729,0.3857,0.4011,0.4234,0.4366,0.4587,0.4732,0.4691,0.4625,0.453,0.4517,0.4496,0.4273,0.4087,0.4596,0.4669,0.467,0.4671,0.4672,0.4673,0,0.3407,0.3432,0.3463,0.3464,0.3457,0.3509,0.3583,0.3572,0.3639,0.3854,0.3989,0.4223,0.4325,0.4431,0.4526,0.4409,0.4121,0.4295,0.394,0.3846,0.4351,0.4289,0.4252,0.4252,0.4252,0.4252,0.4252,0.4252,0.3378,0.3374,0.3387,0.3338,0.3342,0.3273,0.328,0.3286,0.3389,0.3514,0.3645,0.3817,0.419,0.4402,0.4346,0.423,0.3885,0.3734,0.366,0.4066,0.4083,0.4098,0.4029,0.3938,0.3938,0.2981,0.2975,0.297]},{"header":{"parameterUnit":"m.s-1","parameterCategory":2,"la1":30.2991,"la2":30.254,"lo1":-89.0895,"lo2":-89.0444,"dy":0.0017,"dx":0.0017,"nx":28,"ny":28,"refTime":"2024-06-03T09:00:00:Z","depth":"0","parameterNumber":3,"parameterNumberName":"V-component_of_CURRENTS"},"data":[0,0,0,0,0,0,0,0,0,0,0,0,0,0,0,0,0,0,0,0,0,0,0,0,0,0,0,0,0,0,0,0,0,0,0,0,0,0,0,0,0,0,0,0,0,0,0,0,0,0,0,0,0,0,0,0,0,0,0.0191,0.019,0,0.0105,0.0104,0.0103,0.0044,0.0044,0.0044,0.0044,-0.007,-0.0073,-0.0076,0,0,0,0,0,0,0,0,0,0,0,0,0,0.0222,0.0222,0.0191,0.019,0.0189,0.0105,0.0104,0.0102,0.0045,0.0044,0.0044,0.0044,-0.0069,-0.0072,-0.0076,0,0,0,0,0,0,0,0,0,0,0,0,0,0.0178,0.0222,0.0191,0.0152,0.0148,0.0105,0.0104,0.0102,0.0045,0.0044,0.0044,0.0044,-0.0068,-0.0072,-0.0076,-0.0096,0,0,-0.0089,-0.0091,0,0,0,0,0,0,0,0,0.018,0.0176,0.0158,0.0154,0.015,0.0087,0.0073,0.0035,0.0045,0.0081,0.0044,0.0043,-0.0018,-0.0027,-0.0045,-0.0101,-0.0106,-0.009,-0.0092,-0.0094,-0.0095,0,0,0,0,0,0,0,0.0184,0.0179,0.0155,0.0158,0.0152,0.011,0.0104,0.0065,0.0032,0.0078,0.0074,0.0068,-0.0021,-0.0041,-0.0048,-0.0108,-0.0089,-0.0093,-0.0096,-0.0098,-0.0176,-0.0176,0,0,0,0,0,0,0.0204,0.0183,0.0157,0.0152,0.0167,0.011,0.0103,0.0106,0.0033,0.0022,0.0069,0.0066,-0.0033,-0.0043,-0.0052,-0.005,-0.0094,-0.0098,-0.01,-0.0177,-0.0176,-0.0176,0,0,0,0,0,0,0.0205,0.0202,0.0161,0.0167,0.0159,0.0111,0.0113,0.0104,0.009,0.0027,0.0015,0.0065,-0.0034,-0.0046,-0.0075,-0.0056,-0.01,-0.0104,-0.0177,-0.0177,-0.0176,-0.0065,0,0,0,0,0,0,0.0206,0.0204,0.0211,0.0169,0.0159,0.0151,0.0114,0.0103,0.0088,0.0083,0.002,0.0008,-0.0035,-0.0068,-0.0079,-0.0063,-0.0107,-0.0178,-0.0177,-0.0176,-0.007,-0.0061,-0.0054,0,0,0,0,0,0.0208,0.0227,0.0212,0.0209,0.0172,0.0152,0.0144,0.0106,0.0088,0.009,0.0048,0.001,-0.0071,-0.0071,-0.0084,-0.0069,-0.0178,-0.0177,-0.0176,-0.0073,-0.0063,-0.0054,0,0,0,0,0,0,0.0243,0.0222,0.0204,0.0216,0.0191,0.0144,0.0142,0.0115,0.0082,0.0079,0.0016,0.0003,-0.0017,-0.0059,-0.0058,-0.0091,-0.0131,-0.0132,-0.0048,-0.0039,-0.0031,-0.0003,-0.0111,0,0,0,0,0,0.0256,0.0265,0.0233,0.024,0.0234,0.0188,0.0175,0.0152,0.0117,0.0102,0.0058,0.0011,-0.0025,-0.0043,-0.0085,-0.01,-0.0144,-0.01,-0.0092,-0.0085,-0.0072,-0.0127,-0.0123,-0.0173,-0.0173,-0.0173,0,0,0.027,0.026,0.0264,0.0248,0.0225,0.0233,0.018,0.0172,0.0177,0.0095,0.0088,0.0036,-0.0024,-0.004,-0.0053,-0.0071,-0.0093,-0.0084,-0.0077,-0.0068,-0.0126,-0.0121,-0.0117,-0.0172,-0.0172,-0.0172,0,0,0.0312,0.0298,0.0322,0.0309,0.0288,0.0267,0.0272,0.0233,0.0215,0.0197,0.0143,0.0105,0.0048,0.0012,-0.0014,0.0012,-0.0051,-0.0003,0.0063,0.001,0.0014,0.0017,-0.0025,-0.0026,0.0004,0.0004,0.0004,0,0.0328,0.0358,0.0324,0.0343,0.0347,0.0293,0.0324,0.0297,0.0253,0.0247,0.0211,0.0132,0.0075,0.0061,0.0067,0.0032,-0.0006,0.0036,0.0022,0.0024,0.0025,-0.0019,-0.0022,0.0009,0.0009,0.0008,0.0008,0,0.0387,0.041,0.0424,0.0437,0.0436,0.0451,0.0421,0.0412,0.0381,0.0351,0.0322,0.0241,0.0197,0.0169,0.0124,0.0111,0.008,0.0038,0.0004,0.0037,-0.0011,-0.0017,0.0017,0.0015,0.0014,0.0012,0,0,0.0432,0.0462,0.0468,0.0497,0.0491,0.0501,0.0514,0.0514,0.0535,0.0465,0.0481,0.0394,0.0343,0.031,0.0244,0.0193,0.016,0.0129,0.0124,0.01,0.0053,0.0048,0.0041,0.0117,0.0117,0.0116,0.002,0,0.0492,0.0563,0.0557,0.0625,0.0664,0.0628,0.0651,0.0638,0.0616,0.0613,0.0519,0.0499,0.04,0.0384,0.0319,0.0205,0.015,0.0191,0.0014,0.0009,0.001,0.0036,0.0063,-0.0018,0.0014,0.0013,0.0013,0,0.0558,0.06,0.0681,0.0737,0.075,0.0775,0.0813,0.083,0.0804,0.0783,0.0738,0.0661,0.0585,0.0491,0.0314,0.0346,0.0212,0.0111,0.0104,0.0059,-0.0005,-0.005,-0.003,-0.0266,0.0004,0.0004,0.0005,0,0.0625,0.0693,0.0768,0.0782,0.0826,0.0851,0.0878,0.0879,0.0932,0.0897,0.0929,0.0798,0.0767,0.0573,0.036,0.0334,0.0166,0.0097,-0.0035,-0.0037,-0.0068,-0.0072,-0.0286,-0.0034,-0.0034,-0.0034,-0.0034,0,0.0702,0.076,0.0802,0.0839,0.0941,0.0933,0.1038,0.1037,0.1076,0.1177,0.103,0.1078,0.0787,0.0655,0.042,0.0197,0.0205,-0.0011,-0.0058,-0.0028,-0.0027,-0.0279,-0.0409,-0.0038,-0.0037,-0.0036,-0.0035,0,0.0769,0.0793,0.0884,0.0943,0.0978,0.1049,0.1172,0.1248,0.1262,0.1393,0.1393,0.1295,0.1118,0.0821,0.0521,0.0311,-0.0065,-0.0023,0.0041,0.0003,-0.0345,-0.0467,-0.0715,-0.0826,-0.0187,-0.0188,-0.0188,0,0.0811,0.0866,0.0971,0.1046,0.1079,0.1193,0.1285,0.134,0.1446,0.1552,0.1628,0.1499,0.1455,0.1009,0.0569,0.0155,-0.008,-0.0073,-0.0131,-0.0349,-0.0522,-0.061,-0.0691,-0.0135,-0.0135,-0.0135,-0.0135,0,0.09,0.093,0.1007,0.1164,0.1271,0.1421,0.1557,0.1675,0.1774,0.1886,0.2011,0.1984,0.1569,0.1158,0.0583,0.0296,-0.0226,-0.0085,-0.0339,-0.0512,-0.0596,-0.0727,-0.0086,-0.0135,-0.0135,-0.0135,-0.0135,-0.0135,0.0962,0.1041,0.1148,0.1297,0.1439,0.163,0.1769,0.1932,0.2136,0.2319,0.2288,0.2296,0.1714,0.0925,0.0496,-0.0244,-0.0266,-0.0462,-0.0596,-0.0666,-0.0767,-0.0111,-0.0196,-0.0196,-0.0196,-0.0197,-0.0197,0,0.1042,0.1139,0.1284,0.1464,0.1633,0.1696,0.1942,0.2091,0.2344,0.2505,0.26,0.2337,0.1617,0.0885,-0.0115,-0.0648,-0.0847,-0.0939,-0.1081,-0.1145,-0.0586,-0.0577,-0.0714,-0.0714,-0.0714,-0.0713,-0.0713,-0.0713,0.109,0.1235,0.1313,0.1597,0.1735,0.1971,0.2119,0.2344,0.2507,0.2709,0.2729,0.2686,0.2168,0.0364,-0.0865,-0.1157,-0.1515,-0.1597,-0.18,-0.1446,-0.1412,-0.138,-0.1404,-0.1712,-0.1714,-0.2284,-0.229,-0.2295]}],[{"header":{"parameterUnit":"m.s-1","parameterCategory":2,"la1":30.2991,"la2":30.254,"lo1":-89.0895,"lo2":-89.0444,"dy":0.0017,"dx":0.0017,"nx":28,"ny":28,"refTime":"2024-06-03T09:00:00:Z","depth":"2","parameterNumber":2,"parameterNumberName":"U-component_of_CURRENTS"},"data":[0,0,0,0,0,0,0,0,0,0,0,0,0,0,0,0,0,0,0,0,0,0,0,0,0,0,0,0,0,0,0,0,0,0,0,0,0,0,0,0,0,0,0,0,0,0,0,0,0,0,0,0,0,0,0,0,0,0,0.3129,0.313,0,0.3186,0.3187,0.3187,0.3194,0.3193,0.3193,0.3193,0.3238,0.3239,0.3241,0,0,0,0,0,0,0,0,0,0,0,0,0,0.3036,0.3037,0.3129,0.313,0.3131,0.3186,0.3187,0.3187,0.3194,0.3193,0.3193,0.3193,0.3237,0.3239,0.3241,0,0,0,0,0,0,0,0,0,0,0,0,0,0.308,0.3038,0.3129,0.3144,0.3146,0.3186,0.3187,0.3187,0.3194,0.3193,0.3193,0.3193,0.3237,0.3239,0.3241,0.3261,0,0,0.3248,0.3248,0,0,0,0,0,0,0,0,0.3077,0.3082,0.3141,0.3143,0.3145,0.3186,0.3171,0.3213,0.3194,0.3172,0.3193,0.3193,0.3222,0.3225,0.3232,0.3263,0.3265,0.3248,0.3249,0.325,0.3251,0,0,0,0,0,0,0,0.3074,0.308,0.3148,0.3142,0.3145,0.3152,0.3157,0.3178,0.3195,0.3174,0.3175,0.3188,0.3223,0.323,0.3233,0.3266,0.3248,0.325,0.3251,0.3252,0.3379,0.3381,0,0,0,0,0,0,0.3075,0.3077,0.3146,0.315,0.3114,0.3154,0.3159,0.317,0.3195,0.32,0.3188,0.3188,0.3226,0.323,0.3235,0.3318,0.325,0.3252,0.3253,0.3377,0.338,0.3382,0,0,0,0,0,0,0.3072,0.308,0.3144,0.3118,0.3127,0.3156,0.3168,0.3172,0.3193,0.3207,0.321,0.3207,0.3226,0.3232,0.3273,0.3318,0.3253,0.3255,0.3375,0.3378,0.3381,0.3448,0,0,0,0,0,0,0.3069,0.3079,0.309,0.3118,0.3129,0.3181,0.3169,0.3173,0.3202,0.3203,0.3225,0.3227,0.3226,0.327,0.3275,0.3319,0.3256,0.3372,0.3376,0.338,0.3443,0.3453,0.3461,0,0,0,0,0,0.3066,0.308,0.309,0.3099,0.3142,0.3183,0.3189,0.3205,0.3203,0.3221,0.3238,0.3227,0.3299,0.3273,0.3279,0.3325,0.337,0.3375,0.338,0.3439,0.3451,0.3461,0,0,0,0,0,0,0.3044,0.3084,0.3095,0.3121,0.3157,0.3185,0.3206,0.3217,0.3243,0.3247,0.325,0.3256,0.3314,0.3309,0.3281,0.3375,0.3335,0.3341,0.3378,0.339,0.3399,0.3405,0.3258,0,0,0,0,0,0.3047,0.3069,0.311,0.3133,0.3154,0.3183,0.3203,0.3219,0.3245,0.3257,0.3274,0.3299,0.3337,0.3353,0.3381,0.3426,0.3435,0.3462,0.3471,0.3479,0.3489,0.3535,0.355,0.3398,0.3398,0.3398,0,0,0.3044,0.3071,0.3083,0.3131,0.3158,0.32,0.3194,0.3234,0.3271,0.3259,0.3312,0.3335,0.3358,0.3414,0.344,0.3415,0.353,0.3485,0.3491,0.3497,0.3542,0.3557,0.357,0.3401,0.34,0.34,0,0,0.3053,0.3078,0.3103,0.3138,0.3191,0.3218,0.3235,0.3279,0.3302,0.3355,0.3365,0.3413,0.3456,0.3489,0.3508,0.3585,0.3581,0.3599,0.3646,0.3692,0.3704,0.3715,0.3756,0.377,0.3598,0.3598,0.3598,0,0.3051,0.3087,0.3117,0.3156,0.3189,0.323,0.327,0.3308,0.336,0.3386,0.3381,0.3477,0.3495,0.3574,0.3606,0.3608,0.3629,0.3599,0.3703,0.3714,0.3724,0.3763,0.3778,0.3602,0.3601,0.3601,0.3601,0,0.308,0.3116,0.3137,0.3201,0.3241,0.3284,0.3343,0.3388,0.3421,0.3454,0.3538,0.3572,0.3625,0.3649,0.3653,0.3746,0.3737,0.3712,0.3671,0.3744,0.378,0.3794,0.3607,0.3606,0.3605,0.3604,0,0,0.3059,0.3142,0.3149,0.318,0.3269,0.3298,0.3378,0.3453,0.3507,0.3561,0.3633,0.3706,0.3725,0.375,0.3771,0.3815,0.3912,0.3801,0.3801,0.3835,0.4019,0.3991,0.4004,0.3906,0.3908,0.391,0.4018,0,0.3077,0.314,0.3184,0.3251,0.3293,0.3357,0.3425,0.3497,0.3565,0.3647,0.3701,0.378,0.3765,0.3808,0.3852,0.3909,0.3951,0.3885,0.3949,0.3951,0.3913,0.402,0.3728,0.3798,0.4032,0.4034,0.4036,0,0.3097,0.3135,0.3195,0.3277,0.3301,0.335,0.3461,0.3529,0.3654,0.3712,0.3798,0.3846,0.3949,0.3915,0.4032,0.3993,0.4015,0.404,0.4044,0.4004,0.395,0.3763,0.3815,0.4059,0.4057,0.4055,0.4054,0,0.306,0.3145,0.3187,0.3216,0.3316,0.3356,0.3421,0.3544,0.3624,0.3766,0.3847,0.3945,0.4032,0.4071,0.4135,0.4093,0.4254,0.4193,0.4183,0.4181,0.3938,0.391,0.4263,0.4263,0.4263,0.4262,0.4262,0,0.3063,0.3092,0.3171,0.3188,0.3255,0.3331,0.3428,0.3516,0.3665,0.3766,0.3877,0.3982,0.4079,0.4177,0.4186,0.4253,0.4293,0.4224,0.422,0.3955,0.3929,0.4148,0.4133,0.4266,0.4266,0.4265,0.4264,0,0.3022,0.307,0.3118,0.3204,0.324,0.3287,0.3437,0.3505,0.366,0.3806,0.3862,0.4054,0.4184,0.4266,0.4367,0.4337,0.4383,0.4382,0.4075,0.4034,0.4259,0.4247,0.4382,0.4382,0.4382,0.4382,0.4382,0,0.2999,0.3028,0.3114,0.3144,0.3184,0.3273,0.3335,0.3491,0.358,0.3832,0.3894,0.4097,0.4203,0.437,0.4377,0.4416,0.4433,0.4141,0.4006,0.4296,0.4278,0.4265,0.4253,0.3708,0.3702,0.3698,0.3694,0,0.2974,0.3013,0.3052,0.3105,0.3158,0.3231,0.3337,0.3402,0.3582,0.3711,0.388,0.3991,0.4195,0.4135,0.4227,0.4186,0.4113,0.4055,0.4448,0.3735,0.3673,0.3651,0.3659,0.3655,0.3659,0.3662,0.3664,0.3666,0.2956,0.2972,0.3022,0.3067,0.3124,0.3162,0.317,0.3281,0.3387,0.3516,0.3718,0.3786,0.389,0.3899,0.3798,0.3733,0.4,0.3797,0.3804,0.3818,0.3734,0.3676,0.3643,0.3646,0.365,0.3653,0.3655,0,0.2916,0.2948,0.2981,0.3001,0.2999,0.3078,0.3143,0.3101,0.3134,0.3322,0.3429,0.3243,0.327,0.3347,0.3224,0.3249,0.3144,0.3084,0.2914,0.2961,0.3001,0.2866,0.2549,0.2545,0.254,0.2536,0,0,0.2887,0.2881,0.2882,0.2859,0.2882,0.2827,0.2826,0.279,0.2869,0.2847,0.2889,0.317,0.3331,0.2907,0.2871,0.2691,0.2784,0.2585,0.3498,0.3352,0.3385,0.347,0.3326,0,0,0,0,0]},{"header":{"parameterUnit":"m.s-1","parameterCategory":2,"la1":30.2991,"la2":30.254,"lo1":-89.0895,"lo2":-89.0444,"dy":0.0017,"dx":0.0017,"nx":28,"ny":28,"refTime":"2024-06-03T09:00:00:Z","depth":"2","parameterNumber":3,"parameterNumberName":"V-component_of_CURRENTS"},"data":[0,0,0,0,0,0,0,0,0,0,0,0,0,0,0,0,0,0,0,0,0,0,0,0,0,0,0,0,0,0,0,0,0,0,0,0,0,0,0,0,0,0,0,0,0,0,0,0,0,0,0,0,0,0,0,0,0,0,0.0078,0.0077,0,0.0,-0.0001,-0.0002,-0.0055,-0.0055,-0.0055,-0.0055,-0.0161,-0.0164,-0.0166,0,0,0,0,0,0,0,0,0,0,0,0,0,0.0104,0.0104,0.0078,0.0077,0.0076,0.0,-0.0001,-0.0002,-0.0055,-0.0055,-0.0055,-0.0055,-0.016,-0.0163,-0.0167,0,0,0,0,0,0,0,0,0,0,0,0,0,0.0064,0.0104,0.0078,0.0042,0.0039,0.0001,-0.0001,-0.0002,-0.0055,-0.0055,-0.0055,-0.0056,-0.0159,-0.0163,-0.0167,-0.0185,0,0,-0.0179,-0.0181,0,0,0,0,0,0,0,0,0.0067,0.0063,0.0048,0.0045,0.0041,-0.0016,-0.0031,-0.0064,-0.0055,-0.0021,-0.0055,-0.0056,-0.0114,-0.0121,-0.0138,-0.019,-0.0195,-0.0179,-0.0182,-0.0184,-0.0185,0,0,0,0,0,0,0,0.0069,0.0066,0.0045,0.0048,0.0043,0.0004,-0.0001,-0.0038,-0.0067,-0.0024,-0.0028,-0.0033,-0.0117,-0.0134,-0.0141,-0.0196,-0.0179,-0.0183,-0.0185,-0.0187,-0.0259,-0.0258,0,0,0,0,0,0,0.0088,0.0069,0.0048,0.0043,0.0055,0.0004,-0.0002,0.0001,-0.0066,-0.0076,-0.0033,-0.0035,-0.0127,-0.0136,-0.0145,-0.0142,-0.0184,-0.0187,-0.019,-0.0259,-0.0258,-0.0258,0,0,0,0,0,0,0.0089,0.0087,0.0051,0.0055,0.0048,0.0005,0.0008,-0.0001,-0.0013,-0.0072,-0.0083,-0.0035,-0.0128,-0.0139,-0.0165,-0.0148,-0.0189,-0.0193,-0.026,-0.0259,-0.0258,-0.0155,0,0,0,0,0,0,0.009,0.0088,0.0095,0.0057,0.0049,0.0043,0.0008,-0.0002,-0.0015,-0.0019,-0.0078,-0.0088,-0.0129,-0.0158,-0.0169,-0.0154,-0.0196,-0.026,-0.0259,-0.0258,-0.0159,-0.0151,-0.0144,0,0,0,0,0,0.0091,0.011,0.0096,0.0093,0.0061,0.0044,0.0036,0.0002,-0.0015,-0.0012,-0.0051,-0.0086,-0.0161,-0.0161,-0.0173,-0.0159,-0.0261,-0.026,-0.0258,-0.0162,-0.0152,-0.0144,0,0,0,0,0,0,0.0123,0.0105,0.0089,0.0101,0.0079,0.0036,0.0035,0.0011,-0.0019,-0.0022,-0.008,-0.0093,-0.0111,-0.015,-0.0149,-0.0179,-0.0217,-0.0218,-0.0139,-0.0131,-0.0123,-0.0099,-0.0199,0,0,0,0,0,0.0135,0.0145,0.0116,0.0124,0.0119,0.0078,0.0066,0.0045,0.0014,0.0,-0.0041,-0.0084,-0.0117,-0.0134,-0.0172,-0.0186,-0.023,-0.0186,-0.0179,-0.0172,-0.0161,-0.0215,-0.0211,-0.0255,-0.0255,-0.0255,0,0,0.0148,0.014,0.0144,0.0131,0.0111,0.0119,0.007,0.0064,0.0069,-0.0006,-0.0012,-0.006,-0.0116,-0.0131,-0.0142,-0.0159,-0.0182,-0.0171,-0.0164,-0.0157,-0.0214,-0.021,-0.0206,-0.0254,-0.0254,-0.0254,0,0,0.0186,0.0175,0.0197,0.0188,0.0171,0.0152,0.0156,0.0121,0.0105,0.009,0.004,0.0005,-0.0047,-0.0081,-0.0106,-0.0081,-0.0141,-0.0094,-0.0033,-0.0085,-0.0082,-0.008,-0.0122,-0.0124,-0.0088,-0.0087,-0.0087,0,0.02,0.0229,0.02,0.022,0.0226,0.0176,0.0205,0.0181,0.0141,0.0135,0.0104,0.003,-0.0023,-0.0037,-0.0031,-0.0063,-0.0099,-0.0059,-0.0074,-0.0073,-0.0072,-0.0116,-0.012,-0.0082,-0.0083,-0.0083,-0.0084,0,0.0255,0.0277,0.0292,0.0306,0.0307,0.0323,0.0296,0.0288,0.026,0.0232,0.0206,0.013,0.009,0.0064,0.0023,0.0009,-0.002,-0.0058,-0.0092,-0.0061,-0.011,-0.0115,-0.0075,-0.0077,-0.0078,-0.008,0,0,0.0286,0.0325,0.0329,0.0358,0.0359,0.0368,0.0382,0.0381,0.0397,0.0336,0.0348,0.027,0.0224,0.0193,0.0132,0.0082,0.0049,0.0024,0.0019,-0.0007,-0.0057,-0.0079,-0.0088,0.001,0.0009,0.0009,-0.0089,0,0.0337,0.0407,0.0409,0.0474,0.0511,0.0484,0.0505,0.0494,0.0472,0.0467,0.0381,0.0362,0.0276,0.0261,0.0199,0.0089,0.0037,0.0079,-0.0092,-0.0097,-0.0112,-0.0094,-0.0057,-0.0141,-0.0095,-0.0096,-0.0097,0,0.0392,0.0435,0.0515,0.0574,0.0586,0.0613,0.0646,0.0663,0.0637,0.0618,0.0577,0.0508,0.0435,0.0354,0.0183,0.0216,0.0093,-0.0003,-0.001,-0.0069,-0.0129,-0.0168,-0.0154,-0.0108,-0.0107,-0.0106,-0.0105,0,0.0439,0.051,0.0583,0.0601,0.0652,0.0678,0.0705,0.0707,0.0748,0.072,0.074,0.0626,0.0589,0.0417,0.0216,0.0199,0.0025,-0.0029,-0.0165,-0.0168,-0.019,-0.0193,-0.0152,-0.0152,-0.0151,-0.0151,-0.0151,0,0.0498,0.0552,0.0611,0.0647,0.0741,0.0747,0.0836,0.084,0.0872,0.0943,0.0829,0.0848,0.0603,0.0473,0.0265,0.0044,0.0057,-0.0147,-0.0193,-0.0152,-0.0151,-0.0169,-0.0169,-0.0155,-0.0154,-0.0153,-0.0153,0,0.0537,0.0575,0.0663,0.0732,0.077,0.0834,0.0947,0.1007,0.1022,0.1113,0.1113,0.1017,0.0846,0.0593,0.0319,0.0128,-0.0099,-0.0184,-0.0113,-0.0149,-0.0271,-0.0265,-0.0347,-0.0348,-0.0349,-0.0351,-0.0352,0,0.0565,0.0615,0.073,0.0801,0.084,0.0944,0.1025,0.1079,0.1164,0.1224,0.1276,0.1148,0.1079,0.0673,0.0302,-0.0055,-0.0102,-0.025,-0.0288,-0.0253,-0.0291,-0.0283,-0.0276,-0.0277,-0.0278,-0.0278,-0.0278,0,0.062,0.0657,0.0735,0.0881,0.0981,0.1115,0.1237,0.1326,0.1404,0.1467,0.1528,0.1477,0.1116,0.0758,0.0274,0.0034,-0.0195,-0.0266,-0.0251,-0.0228,-0.0195,-0.0229,-0.0223,-0.028,-0.028,-0.028,-0.0279,-0.0279,0.0663,0.0728,0.0836,0.0977,0.1108,0.1272,0.1386,0.1509,0.165,0.176,0.171,0.1657,0.1263,0.0651,0.0216,-0.0225,-0.0207,-0.0358,-0.0354,-0.0351,-0.032,-0.0291,-0.0387,-0.0388,-0.0388,-0.0388,-0.0389,0,0.0721,0.0808,0.0931,0.1101,0.1244,0.1317,0.1524,0.1626,0.1789,0.1886,0.1924,0.1566,0.1173,0.0724,0.0064,-0.0335,-0.0363,-0.045,-0.0399,-0.0393,-0.0389,-0.0359,-0.0438,-0.0439,-0.0441,-0.0442,0,0,0.0756,0.0877,0.094,0.1187,0.1318,0.1525,0.1652,0.1798,0.1915,0.1973,0.1964,0.1899,0.1355,0.087,0.0319,-0.006,-0.0131,-0.013,-0.0044,0.0088,0.0097,-0.0288,-0.023,0,0,0,0,0]}],[{"header":{"parameterUnit":"m.s-1","parameterCategory":2,"la1":30.2991,"la2":30.254,"lo1":-89.0895,"lo2":-89.0444,"dy":0.0017,"dx":0.0017,"nx":28,"ny":28,"refTime":"2024-06-03T09:00:00:Z","depth":"4","parameterNumber":2,"parameterNumberName":"U-component_of_CURRENTS"},"data":[0,0,0,0,0,0,0,0,0,0,0,0,0,0,0,0,0,0,0,0,0,0,0,0,0,0,0,0,0,0,0,0,0,0,0,0,0,0,0,0,0,0,0,0,0,0,0,0,0,0,0,0,0,0,0,0,0,0,0.2061,0.2062,0,0.2157,0.2158,0.2158,0.2231,0.2232,0.2233,0.2233,0.2348,0.235,0.2352,0,0,0,0,0,0,0,0,0,0,0,0,0,0.1936,0.1937,0.2061,0.2062,0.2064,0.2157,0.2158,0.2159,0.2231,0.2232,0.2233,0.2234,0.2347,0.235,0.2352,0,0,0,0,0,0,0,0,0,0,0,0,0,0.2004,0.1938,0.2061,0.2113,0.2119,0.2156,0.2158,0.2159,0.223,0.2232,0.2233,0.2234,0.2346,0.2349,0.2352,0.2345,0,0,0.2362,0.2364,0,0,0,0,0,0,0,0,0.2,0.2008,0.2104,0.211,0.2116,0.2186,0.2156,0.2223,0.223,0.2185,0.2233,0.2235,0.2296,0.2304,0.2314,0.235,0.2355,0.2363,0.2365,0.2366,0.2367,0,0,0,0,0,0,0,0.1995,0.2004,0.2096,0.2105,0.2113,0.213,0.2141,0.2168,0.223,0.2189,0.2195,0.221,0.2299,0.2311,0.2317,0.2357,0.2363,0.2366,0.2368,0.2369,0.2531,0.2534,0,0,0,0,0,0,0.1988,0.2,0.2093,0.2099,0.2063,0.2132,0.2144,0.216,0.2229,0.2242,0.2209,0.2213,0.2304,0.2313,0.2322,0.2439,0.2366,0.2369,0.2371,0.2529,0.2532,0.2534,0,0,0,0,0,0,0.1985,0.1995,0.2089,0.2054,0.2067,0.2133,0.215,0.2161,0.2219,0.2245,0.2257,0.2261,0.2306,0.2317,0.2389,0.2439,0.2371,0.2374,0.2526,0.253,0.2533,0.2595,0,0,0,0,0,0,0.1981,0.1993,0.2023,0.2053,0.2069,0.214,0.2149,0.2162,0.2224,0.2232,0.2293,0.2302,0.2308,0.2384,0.2392,0.2442,0.2376,0.2523,0.2528,0.2532,0.259,0.26,0.2609,0,0,0,0,0,0.1976,0.2002,0.2024,0.2036,0.2101,0.2142,0.2152,0.22,0.2226,0.2257,0.2303,0.2303,0.2418,0.2389,0.2398,0.245,0.2521,0.2527,0.2532,0.2585,0.2598,0.2608,0,0,0,0,0,0,0.1963,0.2013,0.2037,0.2079,0.2123,0.2156,0.2196,0.2225,0.2285,0.2309,0.2328,0.2341,0.2424,0.2429,0.2396,0.2511,0.2472,0.2479,0.251,0.2521,0.2531,0.2536,0.2379,0,0,0,0,0,0.1973,0.201,0.2054,0.2093,0.2119,0.2166,0.2198,0.2233,0.2279,0.2309,0.2351,0.2399,0.2444,0.2477,0.2514,0.2573,0.2582,0.2615,0.2625,0.2632,0.2644,0.27,0.2715,0.2552,0.2552,0.2552,0,0,0.1978,0.2013,0.2035,0.2095,0.2135,0.2177,0.219,0.2253,0.23,0.231,0.2401,0.2437,0.2468,0.2539,0.2577,0.2555,0.2685,0.2639,0.2646,0.2653,0.2707,0.2723,0.2737,0.2555,0.2555,0.2554,0,0,0.1992,0.2042,0.2074,0.2115,0.2187,0.2216,0.2245,0.2307,0.2354,0.243,0.2456,0.2525,0.2592,0.2625,0.2647,0.2731,0.2734,0.2753,0.2806,0.286,0.2874,0.2886,0.2917,0.2931,0.2757,0.2757,0.2757,0,0.2001,0.2048,0.2091,0.2133,0.2175,0.2238,0.2282,0.2333,0.2416,0.2459,0.2474,0.2601,0.263,0.2711,0.2748,0.2753,0.2779,0.2756,0.2872,0.2884,0.2895,0.2924,0.2939,0.276,0.276,0.276,0.2759,0,0.2023,0.2082,0.2109,0.2182,0.2229,0.2285,0.2351,0.2421,0.2487,0.2534,0.2646,0.2694,0.277,0.2793,0.28,0.2902,0.2893,0.2875,0.2838,0.2915,0.2941,0.2955,0.2766,0.2764,0.2763,0.2762,0,0,0.1984,0.2103,0.2116,0.2163,0.2266,0.2299,0.2394,0.2483,0.2557,0.2644,0.2738,0.2823,0.2867,0.2896,0.2923,0.2974,0.3076,0.2971,0.2972,0.2993,0.3196,0.3006,0.3003,0.3086,0.3089,0.3092,0.318,0,0.1996,0.2076,0.2136,0.2223,0.227,0.2361,0.2438,0.2529,0.2622,0.273,0.2804,0.2906,0.29,0.2963,0.3014,0.3073,0.3119,0.3053,0.3126,0.3128,0.2941,0.3014,0.3101,0.3191,0.3194,0.3196,0.3198,0,0.1982,0.2048,0.2132,0.2253,0.2284,0.2352,0.2491,0.2572,0.2725,0.2804,0.2916,0.2983,0.31,0.3079,0.3202,0.3168,0.3194,0.3218,0.3221,0.3032,0.2964,0.3099,0.3224,0.3222,0.322,0.3218,0.3216,0,0.1904,0.2034,0.2106,0.2147,0.2295,0.2366,0.2456,0.2602,0.2685,0.2874,0.2962,0.3088,0.3185,0.3242,0.3302,0.3275,0.3418,0.3375,0.322,0.3207,0.3323,0.3309,0.3453,0.3453,0.3453,0.3453,0.3452,0,0.1865,0.1927,0.2089,0.2128,0.2227,0.2342,0.2466,0.2579,0.275,0.2848,0.3006,0.3094,0.3239,0.3329,0.3349,0.3329,0.3455,0.3242,0.3222,0.3347,0.3335,0.3333,0.3318,0.3456,0.3455,0.3454,0.3454,0,0.176,0.1872,0.1961,0.2134,0.2194,0.2266,0.246,0.254,0.2729,0.287,0.2941,0.3142,0.3257,0.3357,0.3467,0.3374,0.3382,0.3341,0.3481,0.3466,0.3122,0.3109,0.3165,0.3159,0.3154,0.315,0.3147,0,0.1716,0.1751,0.1934,0.1998,0.2091,0.2224,0.231,0.2509,0.2593,0.2859,0.2903,0.3104,0.3211,0.3212,0.3327,0.3352,0.3312,0.3288,0.3185,0.312,0.3096,0.3091,0.3086,0.3139,0.3138,0.3136,0.3135,0,0.1618,0.1694,0.1764,0.1899,0.2008,0.2103,0.2247,0.2287,0.251,0.2706,0.2808,0.2886,0.3014,0.3089,0.3145,0.3149,0.3285,0.3235,0.3243,0.3146,0.3089,0.3069,0.3069,0.3118,0.312,0.3122,0.3123,0,0.1541,0.156,0.1664,0.1767,0.1887,0.1943,0.2041,0.2147,0.2251,0.2541,0.2566,0.2785,0.2978,0.2985,0.3028,0.3032,0.2976,0.2862,0.2889,0.291,0.2785,0.2672,0.2566,0,0,0,0,0,0.1457,0.1457,0.1531,0.1624,0.1734,0.1817,0.1974,0.2077,0.2289,0.2297,0.2426,0.2534,0.2629,0.2739,0.2691,0.2905,0.2978,0.2835,0.2858,0.3022,0.3042,0.2919,0,0,0,0,0,0,0.1398,0.1443,0.1467,0.1475,0.1522,0.1625,0.1721,0.1875,0.189,0.2124,0.2191,0.2378,0.2507,0.2634,0.2644,0.2676,0.2636,0.2974,0.2967,0.3011,0.3029,0.3045,0.2925,0,0,0,0,0]},{"header":{"parameterUnit":"m.s-1","parameterCategory":2,"la1":30.2991,"la2":30.254,"lo1":-89.0895,"lo2":-89.0444,"dy":0.0017,"dx":0.0017,"nx":28,"ny":28,"refTime":"2024-06-03T09:00:00:Z","depth":"4","parameterNumber":3,"parameterNumberName":"V-component_of_CURRENTS"},"data":[0,0,0,0,0,0,0,0,0,0,0,0,0,0,0,0,0,0,0,0,0,0,0,0,0,0,0,0,0,0,0,0,0,0,0,0,0,0,0,0,0,0,0,0,0,0,0,0,0,0,0,0,0,0,0,0,0,0,0.0045,0.0045,0,-0.0006,-0.0007,-0.0008,-0.0047,-0.0047,-0.0048,-0.0048,-0.013,-0.0132,-0.0134,0,0,0,0,0,0,0,0,0,0,0,0,0,0.0059,0.0059,0.0045,0.0045,0.0044,-0.0006,-0.0007,-0.0008,-0.0047,-0.0047,-0.0048,-0.0048,-0.0129,-0.0132,-0.0134,0,0,0,0,0,0,0,0,0,0,0,0,0,0.0034,0.0059,0.0045,0.002,0.0017,-0.0006,-0.0007,-0.0008,-0.0047,-0.0047,-0.0048,-0.0048,-0.0129,-0.0131,-0.0134,-0.0145,0,0,-0.0143,-0.0145,0,0,0,0,0,0,0,0,0.0035,0.0033,0.0024,0.0021,0.0018,-0.002,-0.0032,-0.0055,-0.0047,-0.0024,-0.0048,-0.0048,-0.0095,-0.0101,-0.0111,-0.0148,-0.0152,-0.0144,-0.0145,-0.0147,-0.0147,0,0,0,0,0,0,0,0.0037,0.0035,0.0024,0.0023,0.002,-0.0007,-0.0011,-0.0037,-0.0058,-0.0026,-0.0029,-0.0032,-0.0097,-0.0108,-0.0113,-0.0153,-0.0143,-0.0146,-0.0148,-0.0149,-0.0201,-0.02,0,0,0,0,0,0,0.0049,0.0037,0.0025,0.0022,0.0027,-0.0007,-0.0011,-0.0008,-0.0057,-0.0065,-0.0032,-0.0034,-0.0103,-0.011,-0.0116,-0.0113,-0.0147,-0.0149,-0.0151,-0.0201,-0.0201,-0.02,0,0,0,0,0,0,0.005,0.0049,0.0027,0.0029,0.0024,-0.0006,-0.0003,-0.0009,-0.0018,-0.0061,-0.007,-0.0035,-0.0103,-0.0112,-0.0131,-0.0117,-0.0151,-0.0153,-0.0202,-0.0201,-0.02,-0.0118,0,0,0,0,0,0,0.005,0.005,0.0055,0.003,0.0025,0.0024,-0.0003,-0.001,-0.0019,-0.0022,-0.0066,-0.0074,-0.0104,-0.0126,-0.0134,-0.0121,-0.0156,-0.0202,-0.0201,-0.0201,-0.0121,-0.0114,-0.0109,0,0,0,0,0,0.0051,0.0066,0.0056,0.0054,0.0034,0.0025,0.002,-0.0005,-0.0019,-0.0016,-0.0045,-0.0073,-0.0127,-0.0128,-0.0137,-0.0125,-0.0202,-0.0201,-0.0201,-0.0124,-0.0116,-0.0109,0,0,0,0,0,0,0.0073,0.0063,0.0051,0.0061,0.0047,0.0019,0.0019,0.0001,-0.002,-0.0023,-0.0067,-0.0077,-0.009,-0.012,-0.012,-0.0139,-0.017,-0.0171,-0.0108,-0.0101,-0.0095,-0.0079,-0.0158,0,0,0,0,0,0.0082,0.0091,0.0072,0.0079,0.0076,0.0048,0.004,0.0026,0.0003,-0.0007,-0.0037,-0.007,-0.0094,-0.0106,-0.0134,-0.0143,-0.0183,-0.0143,-0.0137,-0.0131,-0.0125,-0.0175,-0.0172,-0.0197,-0.0197,-0.0197,0,0,0.0091,0.0087,0.0091,0.0084,0.0071,0.008,0.0042,0.004,0.0046,-0.0012,-0.0014,-0.0051,-0.0092,-0.0101,-0.0109,-0.0123,-0.0145,-0.013,-0.0125,-0.0122,-0.0174,-0.0171,-0.0169,-0.0197,-0.0197,-0.0197,0,0,0.0119,0.0113,0.013,0.0127,0.0117,0.0104,0.0107,0.0084,0.0073,0.0064,0.0025,-0.0002,-0.0037,-0.0063,-0.0081,-0.0061,-0.0112,-0.0069,-0.0022,-0.007,-0.0068,-0.0067,-0.011,-0.0113,-0.0063,-0.0063,-0.0063,0,0.0129,0.0152,0.0133,0.0151,0.0158,0.0121,0.0145,0.013,0.0103,0.0098,0.0075,0.0021,-0.0019,-0.0029,-0.0022,-0.0046,-0.008,-0.0043,-0.0061,-0.0061,-0.0062,-0.0106,-0.0111,-0.0059,-0.006,-0.006,-0.006,0,0.0171,0.019,0.0202,0.0217,0.0221,0.0235,0.0219,0.0214,0.0193,0.0174,0.0154,0.0098,0.0067,0.0049,0.002,0.0005,-0.002,-0.0048,-0.0076,-0.0054,-0.0102,-0.0108,-0.0053,-0.0055,-0.0056,-0.0057,0,0,0.0187,0.0225,0.0228,0.0253,0.026,0.0269,0.0284,0.0285,0.0297,0.0255,0.0261,0.0206,0.017,0.0147,0.0101,0.0058,0.0022,0.0013,0.0008,-0.0022,-0.0079,-0.0091,-0.01,-0.0007,-0.0008,-0.0009,-0.0109,0,0.0223,0.028,0.0288,0.034,0.0369,0.0356,0.0377,0.0372,0.0356,0.0351,0.0286,0.0273,0.0211,0.02,0.0147,0.0054,0.0008,0.0052,-0.0102,-0.0106,-0.0114,-0.0106,-0.0011,-0.0114,-0.0116,-0.0117,-0.0118,0,0.0259,0.0295,0.0359,0.0411,0.0422,0.0449,0.0478,0.0494,0.0476,0.0462,0.0431,0.038,0.0319,0.0261,0.0113,0.0145,0.0045,-0.0035,-0.0042,-0.0086,-0.0131,-0.0145,-0.013,-0.0129,-0.0129,-0.0128,-0.0127,0,0.0279,0.0343,0.04,0.0418,0.0469,0.0495,0.052,0.0527,0.0554,0.0538,0.0544,0.046,0.0421,0.0287,0.0121,0.0117,-0.005,-0.008,-0.0187,-0.0189,-0.0185,-0.0185,-0.0186,-0.0186,-0.0186,-0.0186,-0.0186,0,0.0312,0.0356,0.0418,0.0447,0.052,0.054,0.0607,0.0616,0.064,0.0677,0.0608,0.06,0.0425,0.0308,0.015,-0.0036,-0.0033,-0.0176,-0.0215,-0.0148,-0.0143,-0.019,-0.0189,-0.019,-0.0189,-0.0188,-0.0187,0,0.0321,0.0363,0.0432,0.0502,0.0535,0.0585,0.0675,0.0717,0.0733,0.0779,0.078,0.0699,0.0548,0.0363,0.014,0.0009,-0.0172,-0.0241,-0.0145,-0.0178,-0.0286,-0.028,-0.0363,-0.0365,-0.0366,-0.0367,-0.0367,0,0.0332,0.0369,0.0469,0.0522,0.056,0.0643,0.0704,0.0759,0.0806,0.0833,0.085,0.0741,0.0656,0.0349,0.0137,-0.0155,-0.0204,-0.0296,-0.03,-0.0275,-0.0305,-0.0296,-0.0289,-0.0369,-0.0369,-0.037,-0.037,0,0.0346,0.038,0.0436,0.0548,0.0628,0.0722,0.0809,0.0854,0.0914,0.0932,0.0913,0.077,0.0601,0.0357,0.0133,-0.0083,-0.0234,-0.0308,-0.0307,-0.0312,-0.0283,-0.0309,-0.0301,-0.0374,-0.0373,-0.0373,-0.0372,0,0.0353,0.0389,0.0468,0.0569,0.067,0.0767,0.0819,0.0881,0.0937,0.0969,0.0955,0.079,0.0699,0.0392,0.018,-0.0025,-0.0087,-0.0159,-0.0167,-0.0166,-0.0085,-0.0018,-0.0056,0,0,0,0,0,0.036,0.0404,0.0487,0.0599,0.0697,0.077,0.0874,0.0917,0.0978,0.0979,0.0977,0.0825,0.0539,0.0412,0.0205,0.0125,-0.0147,-0.0129,-0.0241,-0.0394,-0.039,-0.0331,0,0,0,0,0,0,0.0364,0.0435,0.0479,0.0605,0.0687,0.0807,0.088,0.0928,0.0928,0.0957,0.0809,0.0765,0.0478,0.0662,0.0201,0.0138,0.0035,-0.0255,-0.026,-0.0396,-0.0392,-0.0389,-0.0327,0,0,0,0,0]}]]